This is the latest recevied weather packets stored in our database for station/object UR7D-12. If no packets are shown the sender has not sent any weather packets the latest 10 day(s).
| Time | Temp. | Humidity | Pressure | Rain* | Wind** | Luminosity | Snow |
|---|---|---|---|---|---|---|---|
| 1778054555 | 20.56° C | 55% | 987.3 hPa | 0 mm | - | - | - |
| 1778053054 | 19.44° C | 56% | 987.3 hPa | 0 mm | - | - | - |
| 1778052752 | 18.89° C | 56% | 987.4 hPa | 0 mm | - | - | - |
| 1778052452 | 18.89° C | 55% | 987.4 hPa | 0 mm | - | - | - |
| 1778052151 | 18.89° C | 58% | 987.4 hPa | 0 mm | - | - | - |
| 1778051851 | 18.89° C | 56% | 987.4 hPa | 0 mm | - | - | - |
| 1778051252 | 18.89° C | 57% | 987.5 hPa | 0 mm | - | - | - |
| 1778050952 | 18.33° C | 56% | 987.4 hPa | 0 mm | - | - | - |
| 1778050350 | 17.78° C | 58% | 987.3 hPa | 0 mm | - | - | - |
| 1778050049 | 17.22° C | 58% | 987.2 hPa | 0 mm | - | - | - |
| 1778049449 | 16.67° C | 60% | 987.2 hPa | 0 mm | - | - | - |
| 1778049148 | 16.67° C | 59% | 987.2 hPa | 0 mm | - | - | - |
| 1778048849 | 16.11° C | 61% | 987.2 hPa | 0 mm | - | - | - |
| 1778048548 | 16.11° C | 60% | 987.2 hPa | 0 mm | - | - | - |
| 1778048248 | 15.56° C | 61% | 987.2 hPa | 0 mm | - | - | - |
| 1778047947 | 15.56° C | 61% | 987.1 hPa | 0 mm | - | - | - |
| 1778047647 | 15.56° C | 60% | 987.1 hPa | 0 mm | - | - | - |
| 1778047347 | 15.56° C | 61% | 987.1 hPa | 0 mm | - | - | - |
| 1778046447 | 15° C | 63% | 987.1 hPa | 0 mm | - | - | - |
| 1778045845 | 14.44° C | 63% | 987.2 hPa | 0 mm | - | - | - |
| 1778045545 | 14.44° C | 63% | 987.1 hPa | 0 mm | - | - | - |
| 1778045245 | 14.44° C | 63% | 987.1 hPa | 0 mm | - | - | - |
| 1778044944 | 13.89° C | 64% | 987 hPa | 0 mm | - | - | - |
| 1778044644 | 13.89° C | 65% | 987 hPa | 0 mm | - | - | - |
| 1778044344 | 13.89° C | 65% | 987 hPa | 0 mm | - | - | - |
* Rain latest hour (hover to see other rain measurements)
** Current wind speed in m/s (hover to see current wind gust speed)